TOPSWRTT 000
TTAA00 KICT 300012

Wichita AWIPS Roundup
National Weather Service Wichita KS
600 PM CST THU JAN 29 2015

....Central Kansas....
  
CITY           SKY/WX    TMP DP  RH WIND       PRES   REMARKS
RUSSELL        CLEAR     40  24  53 N9        30.48R WCI  34          
6HR MIN TEMP:  40; 6HR MAX TEMP:  49;                                

SALINA         CLEAR     43  25  49 N9        30.50R WCI  38          
6HR MIN TEMP:  43; 6HR MAX TEMP:  50;                                

GREAT BEND     NOT AVBL                                               
ELLSWORTH      CLEAR     37  25  60 N8        30.49R WCI  31          
MCPHERSON      CLEAR     37  25  60 N6        30.49R WCI  33          
HAYS           CLEAR     41  19  42 N6        30.50R WCI  37          
6HR MIN TEMP:  41; 6HR MAX TEMP:  48;                                


....South Central Kansas....
  
CITY           SKY/WX    TMP DP  RH WIND       PRES   REMARKS
HUTCHINSON     CLEAR     44  24  45 N8        30.49R WCI  39          
6HR MIN TEMP:  44; 6HR MAX TEMP:  51;                                

NEWTON         CLEAR     39  21  48 N9        30.49R WCI  33          
6HR MIN TEMP:  39; 6HR MAX TEMP:  48;                                

KINGMAN        CLEAR     39  27  60 N8        30.49R WCI  34          
WICHITA (ICT)  PTCLDY    46  25  43 N12       30.48R                  
6HR MIN TEMP:  45; 6HR MAX TEMP:  52;                                

JABARA ARPT    CLEAR     40  25  55 N10       30.48R WCI  33          
6HR MIN TEMP:  40; 6HR MAX TEMP:  50;                                

MCCONNELL AFB  CLEAR     44  25  48 N14       30.48R WCI  37          
6HR MIN TEMP:  44; 6HR MAX TEMP:  50;                                

BENTON         FAIR      43  25  50 N6        30.48R WCI  39          
6HR MIN TEMP:  43; 6HR MAX TEMP:  48;                                

EL DORADO      FAIR      41  27  56 N8        30.47R WCI  36          
HARPER           N/A     44  25  47 N5        30.49R                  
WELLINGTON     CLEAR     43  27  52 N7        30.50R WCI  39          
WINFIELD       CLEAR     42  25  50 N8        30.48R WCI  37          
6HR MIN TEMP:  42; 6HR MAX TEMP:  51;                                

 
....Southeast Kansas....
  
CITY           SKY/WX    TMP DP  RH WIND       PRES   REMARKS
EUREKA         CLEAR     37  27  65 N9        30.47S WCI  31          
CHANUTE        CLEAR     42  28  57 N9        30.47R WCI  37          
6HR MIN TEMP:  42; 6HR MAX TEMP:  49;                                

PARSONS        CLEAR     43  29  57 N8        30.47R WCI  38          
6HR MIN TEMP:  43; 6HR MAX TEMP:  51;                                

COFFEYVILLE    CLEAR     44  28  53 N12       30.46R WCI  38          
6HR MIN TEMP:  44; 6HR MAX TEMP:  50;                                

INDEPENDENCE   CLEAR     43  30  61 N7        30.47R WCI  39          
FORT SCOTT     PTCLDY    41  28  60 NW8       30.45S WCI  36          
PITTSBURG      CLEAR     42  30  62 N6        30.44R WCI  39          

....Western Kansas....
  
CITY           SKY/WX    TMP DP  RH WIND       PRES   REMARKS
GOODLAND       PTCLDY    39  21  48 NE6       30.47S WCI  35          
6HR MIN TEMP:  39; 6HR MAX TEMP:  48;                                

HILL CITY      CLEAR     39  21  48 N5        30.49R WCI  36          
6HR MIN TEMP:  39; 6HR MAX TEMP:  49;                                

LIBERAL        MOCLDY    46  21  36 NE8       30.50R                  
6HR MIN TEMP:  45; 6HR MAX TEMP:  52;                                

GARDEN CITY    CLEAR     40  19  43 N9        30.47S WCI  34          
6HR MIN TEMP:  39; 6HR MAX TEMP:  49;                                

DODGE CITY     CLEAR     37  19  48 N7        30.48S WCI  32          
6HR MIN TEMP:  37; 6HR MAX TEMP:  49;                                

PRATT          CLEAR     37  23  56 N7        30.49R WCI  32          
MEDICINE LODGE   N/A     43  24  47 N7        30.48R WCI  39          
6HR MIN TEMP:  43; 6HR MAX TEMP:  51;                                


....Northeast Kansas....
  
CITY           SKY/WX    TMP DP  RH WIND       PRES   REMARKS
CONCORDIA      CLEAR     39  24  55 NW5       30.48R WCI  36          
6HR MIN TEMP:  39; 6HR MAX TEMP:  47;                                

TOPEKA         CLEAR     38  25  59 N8        30.48R WCI  32          
6HR MIN TEMP:  38; 6HR MAX TEMP:  45;                                

MANHATTAN      CLEAR     41  26  55 N3        30.48R                  
6HR MIN TEMP:  41; 6HR MAX TEMP:  46;                                

LAWRENCE       CLEAR     37  25  61 N12       30.47R WCI  29          
6HR MIN TEMP:  37; 6HR MAX TEMP:  46;                                

OLATHE         CLEAR     39  25  57 N13G21    30.43R WCI  31          
6HR MIN TEMP:  39; 6HR MAX TEMP:  44;                                

EMPORIA        CLEAR     38  26  62 N9        30.47R WCI  31          
6HR MIN TEMP:  38; 6HR MAX TEMP:  47;                                


....Oklahoma....
  
CITY           SKY/WX    TMP DP  RH WIND       PRES   REMARKS
GAGE           MOCLDY    47  23  38 N8        30.47R                  
6HR MIN TEMP:  44; 6HR MAX TEMP:  52;                                

PONCA CITY     CLEAR     41  26  55 N8        30.47R WCI  36          
6HR MIN TEMP:  41; 6HR MAX TEMP:  52;                                

BARTLESVILLE   CLEAR     42  27  55 N6        30.47R WCI  38          
6HR MIN TEMP:  42; 6HR MAX TEMP:  51;                                

TULSA          MOCLDY    46  30  53 N10       30.45R                  
6HR MIN TEMP:  46; 6HR MAX TEMP:  53;                                

OKLAHOMA CITY  CLOUDY    48  27  44 N14       30.45R                  
6HR MIN TEMP:  48; 6HR MAX TEMP:  54;                                


Note: "fair" indicates few or no clouds below 12,000 feet with no
significant weather and/or obstructions to visibility.

USA.gov is the U.S. government's official web portal to all federal, state and local government web resources and services.